Weather History for Garden City, KS

Change the Weather History Date:

Thursday, February 7, 2013

  Actual Average Record
Temperature  
Mean Temperature 42 °F 33 °F  
Max Temperature 54 °F 46 °F 74 °F (1987)
Min Temperature 29 °F 20 °F -8 °F (1982)
Degree Days  
Heating Degree Days 23 32  
Month to date heating degree days 167 229  
Since 1 July heating degree days 3191 3409  
Cooling Degree Days 0 0  
Month to date cooling degree days 0 0  
Year to date cooling degree days 0 0  
Moisture  
Dew Point 26 °F    
Average Humidity 57    
Maximum Humidity 86    
Minimum Humidity 28    
Precipitation  
Precipitation 0.00 in 0.02 in 0.46 in (1980)
Month to date precipitation 0.00 0.11  
Year to date precipitation 0.13 0.45  
Sea Level Pressure  
Sea Level Pressure 30.04 in    
Wind  
Wind Speed 16 mph (NNE)    
Max Wind Speed 33 mph    
Max Gust Speed 40 mph    
Visibility 10 miles    
Events      
T = Trace of Precipitation, MM = Missing Value Source: NWS Daily Summary

Daily Weather History Graph

Daily Weather History Graph

Search for Another Location

Airport:

Trip Planner

Search our weather history database for the weather conditions in past years. The results will help you decide how hot, cold, wet, or windy it might be!

Date:

Astronomy

Feb. 07, 2013 Rise Set
Actual Time 7:41 AM CST 6:13 PM CST
Civil Twilight 7:13 AM CST 6:40 PM CST
Nautical Twilight 6:42 AM CST 7:11 PM CST
Astronomical Twilight 6:12 AM CST 7:42 PM CST
Moon 5:20 AM CST (2/7) 3:41 PM CST (2/7)
Length of Visible Light 11h 26m
Length of Day
10h 32m
Waning Crescent, 9% of the Moon is Illuminated
Feb 7
Waning Crescent
Feb 10
New
Feb 17
First Quarter
Feb 25
Full
Mar 4
Last Quarter

Hourly Weather History & Observations

Time (CST) Temp. Windchill Dew Point Humidity Pressure Visibility Wind Dir Wind Speed Gust Speed Precip Events Conditions
12:10 AM 42.8 °F 37.0 °F 39.2 °F 87% 29.84 in 9.0 mi North 10.4 mph - N/A   Mostly Cloudy
12:39 AM 42.8 °F 36.2 °F 39.2 °F 87% 29.85 in 7.0 mi North 12.7 mph - N/A   Scattered Clouds
12:54 AM 44.1 °F 37.4 °F 39.9 °F 85% 29.83 in 8.0 mi North 13.8 mph - N/A   Mostly Cloudy
1:10 AM 42.8 °F 34.3 °F 35.6 °F 76% 29.85 in 10.0 mi North 19.6 mph - N/A   Mostly Cloudy
1:54 AM 44.1 °F 35.2 °F 32.0 °F 63% 29.82 in 10.0 mi North 23.0 mph 29.9 mph N/A   Partly Cloudy
2:54 AM 44.1 °F 35.0 °F 27.0 °F 51% 29.84 in 10.0 mi North 24.2 mph 34.5 mph N/A   Partly Cloudy
3:54 AM 42.1 °F 32.1 °F 27.0 °F 55% 29.87 in 10.0 mi North 25.3 mph 33.4 mph N/A   Clear
4:54 AM 42.1 °F 32.1 °F 27.0 °F 55% 29.90 in 10.0 mi North 25.3 mph 35.7 mph N/A   Mostly Cloudy
5:54 AM 42.1 °F 31.3 °F 26.1 °F 53% 29.95 in 10.0 mi North 29.9 mph 39.1 mph N/A   Overcast
6:54 AM 39.9 °F 28.6 °F 25.0 °F 55% 30.00 in 10.0 mi North 28.8 mph 35.7 mph N/A   Overcast
7:54 AM 37.9 °F 27.6 °F 25.0 °F 60% 30.06 in 10.0 mi North 20.7 mph - N/A   Clear
8:54 AM 39.0 °F 29.6 °F 26.1 °F 60% 30.09 in 10.0 mi North 18.4 mph - N/A   Clear
9:54 AM 44.1 °F 35.7 °F 25.0 °F 47% 30.12 in 10.0 mi North 20.7 mph 29.9 mph N/A   Clear
10:54 AM 46.9 °F - 28.0 °F 48% 30.15 in 10.0 mi North 21.9 mph 29.9 mph N/A   Clear
11:54 AM 48.9 °F - 28.0 °F 44% 30.15 in 10.0 mi North 19.6 mph 27.6 mph N/A   Clear
12:54 PM 52.0 °F - 24.1 °F 34% 30.13 in 10.0 mi NNE 21.9 mph 28.8 mph N/A   Clear
1:54 PM 52.0 °F - 21.9 °F 31% 30.11 in 10.0 mi NNE 13.8 mph 23.0 mph N/A   Clear
2:54 PM 53.1 °F - 21.9 °F 30% 30.09 in 10.0 mi NNE 13.8 mph 23.0 mph N/A   Clear
3:54 PM 54.0 °F - 23.0 °F 30% 30.10 in 10.0 mi North 12.7 mph - N/A   Clear
4:54 PM 53.1 °F - 24.1 °F 32% 30.10 in 10.0 mi North 10.4 mph 20.7 mph N/A   Clear
5:54 PM 48.9 °F - 21.9 °F 35% 30.13 in 10.0 mi NNE 5.8 mph - N/A   Clear
6:54 PM 46.9 °F - 21.0 °F 36% 30.16 in 10.0 mi NE 3.5 mph - N/A   Clear
7:54 PM 39.9 °F 37.8 °F 21.0 °F 47% 30.19 in 10.0 mi ENE 3.5 mph - N/A   Clear
8:54 PM 37.9 °F - 19.9 °F 48% 30.20 in 10.0 mi Calm Calm - N/A   Clear
9:54 PM 37.0 °F 32.4 °F 21.0 °F 52% 30.20 in 10.0 mi SE 5.8 mph - N/A   Clear
10:54 PM 30.9 °F 26.2 °F 21.0 °F 67% 30.21 in 10.0 mi South 4.6 mph - N/A   Clear
11:54 PM 30.9 °F 24.3 °F 21.0 °F 67% 30.22 in 10.0 mi South 6.9 mph - N/A   Clear